| time (UTC) | temp C | wind direction | speed KPH | gust KPH | rain 1hr cm | rain 24hr cm | rain mn cm | humidity % | barometer mb |
| 20260505084542 | 8 | 140 | 6.4 | 11.3 | 0.00 | 0.00 | 0.00 | 64 | 1011.8 |
| 20260505084042 | 8 | 157 | 6.4 | 11.3 | 0.00 | 0.00 | 0.00 | 65 | 1011.8 |
| 20260505083542 | 8 | 165 | 6.4 | 12.9 | 0.00 | 0.00 | 0.00 | 66 | 1011.8 |
| 20260505083042 | 8 | 153 | 6.4 | 14.5 | 0.00 | 0.00 | 0.00 | 69 | 1011.8 |
| 20260505082542 | 8 | 155 | 9.7 | 16.1 | 0.00 | 0.00 | 0.00 | 69 | 1011.8 |
| 20260505082042 | 8 | 161 | 11.3 | 16.1 | 0.00 | 0.00 | 0.00 | 70 | 1011.8 |
| 20260505081542 | 8 | 142 | 8.0 | 19.3 | 0.00 | 0.00 | 0.00 | 71 | 1011.7 |
| 20260505081042 | 8 | 153 | 6.4 | 20.9 | 0.00 | 0.00 | 0.00 | 72 | 1011.8 |
| 20260505080542 | 8 | 168 | 11.3 | 20.9 | 0.00 | 0.00 | 0.00 | 73 | 1011.7 |
| 20260505080042 | 8 | 148 | 11.3 | 20.9 | 0.00 | 0.00 | 0.00 | 77 | 1011.8 |
| 20260505075542 | 7 | 147 | 11.3 | 20.9 | 0.00 | 0.00 | 0.00 | 78 | 1011.8 |
| 20260505075042 | 7 | 171 | 3.2 | 16.1 | 0.00 | 0.00 | 0.00 | 81 | 1011.8 |
| 20260505074542 | 7 | 159 | 11.3 | 19.3 | 0.00 | 0.00 | 0.00 | 81 | 1011.8 |
| 20260505074042 | 7 | 171 | 9.7 | 19.3 | 0.00 | 0.00 | 0.00 | 83 | 1011.8 |
| 20260505073542 | 7 | 151 | 8.0 | 17.7 | 0.00 | 0.00 | 0.00 | 83 | 1011.8 |
| 20260505073042 | 7 | 162 | 6.4 | 19.3 | 0.00 | 0.00 | 0.00 | 85 | 1011.9 |
| 20260505072542 | 7 | 182 | 12.9 | 19.3 | 0.00 | 0.00 | 0.00 | 85 | 1011.8 |
| 20260505072042 | 7 | 151 | 8.0 | 19.3 | 0.00 | 0.00 | 0.00 | 85 | 1011.8 |
| 20260505071542 | 7 | 165 | 11.3 | 19.3 | 0.00 | 0.00 | 0.00 | 84 | 1011.9 |
| 20260505071042 | 7 | 178 | 8.0 | 19.3 | 0.00 | 0.00 | 0.00 | 83 | 1011.9 |
| 20260505070542 | 7 | 183 | 11.3 | 20.9 | 0.00 | 0.00 | 0.00 | 82 | 1012.0 |
| 20260505070042 | 7 | 184 | 12.9 | 20.9 | 0.00 | 0.00 | 0.00 | 81 | 1011.9 |
| 20260505065542 | 8 | 154 | 9.7 | 20.9 | 0.00 | 0.00 | 0.00 | 80 | 1012.0 |
| 20260505065042 | 8 | 154 | 8.0 | 20.9 | 0.00 | 0.00 | 0.00 | 78 | 1012.1 |
| 20260505064542 | 8 | 157 | 12.9 | 20.9 | 0.00 | 0.00 | 0.00 | 78 | 1012.1 |
| 20260505064042 | 8 | 154 | 12.9 | 24.1 | 0.00 | 0.00 | 0.00 | 77 | 1012.1 |
| 20260505063542 | 8 | 178 | 14.5 | 24.1 | 0.00 | 0.00 | 0.00 | 76 | 1012.1 |
| 20260505063042 | 8 | 168 | 9.7 | 22.5 | 0.00 | 0.00 | 0.00 | 76 | 1012.1 |
| 20260505062542 | 8 | 161 | 16.1 | 24.1 | 0.00 | 0.00 | 0.00 | 77 | 1012.1 |
| 20260505062042 | 8 | 155 | 9.7 | 24.1 | 0.00 | 0.00 | 0.00 | 77 | 1012.1 |
| 20260505061542 | 8 | 176 | 9.7 | 22.5 | 0.00 | 0.00 | 0.00 | 78 | 1012.2 |
| 20260505061042 | 8 | 162 | 6.4 | 22.5 | 0.00 | 0.00 | 0.00 | 78 | 1012.2 |
| 20260505060542 | 8 | 168 | 11.3 | 22.5 | 0.00 | 0.00 | 0.00 | 78 | 1012.2 |
| 20260505060042 | 8 | 179 | 8.0 | 22.5 | 0.00 | 0.00 | 0.00 | 79 | 1012.2 |
| 20260505055542 | 8 | 174 | 12.9 | 22.5 | 0.00 | 0.00 | 0.00 | 79 | 1012.1 |
| 20260505055042 | 8 | 157 | 11.3 | 22.5 | 0.00 | 0.00 | 0.00 | 78 | 1012.2 |
| 20260505054542 | 8 | 151 | 8.0 | 22.5 | 0.00 | 0.00 | 0.00 | 78 | 1012.2 |
| 20260505054042 | 8 | 159 | 14.5 | 22.5 | 0.00 | 0.00 | 0.00 | 78 | 1012.2 |
| 20260505053542 | 8 | 173 | 9.7 | 30.6 | 0.00 | 0.00 | 0.00 | 77 | 1012.2 |
| 20260505053042 | 8 | 162 | 12.9 | 30.6 | 0.00 | 0.00 | 0.00 | 75 | 1012.1 |
| 20260505052542 | 8 | 191 | 16.1 | 27.4 | 0.00 | 0.00 | 0.00 | 76 | 1012.1 |
| 20260505052042 | 8 | 186 | 11.3 | 27.4 | 0.00 | 0.00 | 0.00 | 76 | 1012.1 |
| 20260505051542 | 8 | 175 | 12.9 | 27.4 | 0.00 | 0.00 | 0.00 | 78 | 1012.1 |
| 20260505051042 | 8 | 162 | 14.5 | 32.2 | 0.00 | 0.00 | 0.00 | 77 | 1012.1 |
| 20260505050542 | 8 | 159 | 11.3 | 33.8 | 0.00 | 0.00 | 0.00 | 79 | 1012.1 |
| 20260505041542 | 9 | 171 | 19.3 | 29.0 | 0.00 | 0.00 | 0.00 | 77 | 1011.9 |
| 20260505041042 | 10 | 166 | 14.5 | 29.0 | 0.00 | 0.00 | 0.00 | 74 | 1011.8 |
| 20260505040542 | 10 | 171 | 14.5 | 24.1 | 0.00 | 0.00 | 0.00 | 70 | 1011.6 |
| 20260505040042 | 10 | 162 | 14.5 | 29.0 | 0.00 | 0.00 | 0.00 | 68 | 1011.5 |
| 20260505035542 | 11 | 145 | 11.3 | 30.6 | 0.00 | 0.00 | 0.00 | 65 | 1011.5 |
| 20260505035042 | 11 | 165 | 19.3 | 30.6 | 0.00 | 0.00 | 0.00 | 61 | 1011.4 |
| 20260505034542 | 11 | 204 | 16.1 | 30.6 | 0.00 | 0.00 | 0.00 | 58 | 1011.2 |
| 20260505034042 | 11 | 194 | 22.5 | 32.2 | 0.00 | 0.00 | 0.00 | 57 | 1011.1 |
| 20260505033542 | 11 | 204 | 25.7 | 33.8 | 0.00 | 0.00 | 0.00 | 55 | 1011.1 |
| 20260505033042 | 11 | 212 | 25.7 | 33.8 | 0.00 | 0.00 | 0.00 | 57 | 1011.1 |
| 20260505032542 | 12 | 208 | 24.1 | 32.2 | 0.00 | 0.00 | 0.00 | 57 | 1011.0 |
| 20260505032042 | 12 | 204 | 17.7 | 27.4 | 0.00 | 0.00 | 0.00 | 51 | 1011.0 |
| 20260505031542 | 12 | 211 | 17.7 | 27.4 | 0.00 | 0.00 | 0.00 | 48 | 1011.0 |
| 20260505031042 | 12 | 210 | 12.9 | 22.5 | 0.00 | 0.00 | 0.00 | 45 | 1010.9 |
| 20260505030542 | 12 | 201 | 9.7 | 16.1 | 0.00 | 0.00 | 0.00 | 47 | 1010.9 |
| 20260505030042 | 12 | 196 | 8.0 | 14.5 | 0.00 | 0.00 | 0.00 | 48 | 1010.9 |
| 20260505025542 | 12 | 178 | 8.0 | 14.5 | 0.00 | 0.00 | 0.00 | 47 | 1010.9 |
| 20260505025042 | 12 | 185 | 4.8 | 12.9 | 0.00 | 0.00 | 0.00 | 47 | 1010.9 |
| 20260505024542 | 12 | 163 | 6.4 | 12.9 | 0.00 | 0.00 | 0.00 | 47 | 1010.9 |
| 20260505024042 | 12 | 165 | 4.8 | 12.9 | 0.00 | 0.00 | 0.00 | 47 | 1010.9 |
| 20260505023542 | 12 | 171 | 8.0 | 11.3 | 0.00 | 0.00 | 0.00 | 47 | 1010.8 |
| 20260505023042 | 12 | 175 | 4.8 | 11.3 | 0.00 | 0.00 | 0.00 | 47 | 1010.7 |
| 20260505022542 | 13 | 197 | 8.0 | 11.3 | 0.00 | 0.00 | 0.00 | 46 | 1010.7 |
| 20260505022042 | 13 | 197 | 4.8 | 12.9 | 0.00 | 0.00 | 0.00 | 46 | 1010.7 |
| 20260505021542 | 13 | 202 | 6.4 | 12.9 | 0.00 | 0.00 | 0.00 | 45 | 1010.7 |
| 20260505021042 | 13 | 204 | 4.8 | 16.1 | 0.00 | 0.00 | 0.00 | 45 | 1010.7 |
| 20260505020542 | 13 | 201 | 6.4 | 16.1 | 0.00 | 0.00 | 0.00 | 44 | 1010.6 |
| 20260505020042 | 13 | 200 | 9.7 | 16.1 | 0.00 | 0.00 | 0.00 | 44 | 1010.6 |
| 20260505015542 | 13 | 197 | 6.4 | 9.7 | 0.00 | 0.00 | 0.00 | 44 | 1010.7 |
| 20260505015042 | 13 | 191 | 4.8 | 9.7 | 0.00 | 0.00 | 0.00 | 45 | 1010.7 |
| 20260505014043 | 13 | 189 | 4.8 | 12.9 | 0.00 | 0.00 | 0.00 | 44 | 1010.7 |
| 20260505013542 | 13 | 191 | 8.0 | 14.5 | 0.00 | 0.00 | 0.00 | 44 | 1010.7 |
| 20260505013042 | 13 | 197 | 4.8 | 14.5 | 0.00 | 0.00 | 0.00 | 44 | 1010.7 |
| 20260505012542 | 13 | 186 | 8.0 | 16.1 | 0.00 | 0.00 | 0.00 | 43 | 1010.7 |
| 20260505012042 | 13 | 186 | 9.7 | 16.1 | 0.00 | 0.00 | 0.00 | 44 | 1010.8 |
| 20260505011542 | 14 | 179 | 9.7 | 19.3 | 0.00 | 0.00 | 0.00 | 43 | 1010.8 |
| 20260505011042 | 14 | 162 | 8.0 | 19.3 | 0.00 | 0.00 | 0.00 | 43 | 1010.8 |
| 20260505010542 | 14 | 184 | 6.4 | 19.3 | 0.00 | 0.00 | 0.00 | 43 | 1010.9 |
| 20260505010042 | 15 | 177 | 9.7 | 19.3 | 0.00 | 0.00 | 0.00 | 42 | 1010.9 |
| 20260505005542 | 15 | 151 | 8.0 | 17.7 | 0.00 | 0.00 | 0.00 | 39 | 1010.9 |
| 20260505005042 | 15 | 164 | 9.7 | 12.9 | 0.00 | 0.00 | 0.00 | 36 | 1010.9 |
| 20260505004542 | 16 | 176 | 4.8 | 9.7 | 0.00 | 0.00 | 0.00 | 37 | 1010.9 |
| 20260505004042 | 16 | 168 | 1.6 | 8.0 | 0.00 | 0.00 | 0.00 | 34 | 1010.9 |
| 20260505003542 | 16 | 16 | 0.0 | 4.8 | 0.00 | 0.00 | 0.00 | 36 | 1010.9 |
| 20260505003042 | 16 | 213 | 0.0 | 8.0 | 0.00 | 0.00 | 0.00 | 35 | 1010.9 |
| 20260505002542 | 16 | 251 | 3.2 | 8.0 | 0.00 | 0.00 | 0.00 | 34 | 1011.0 |
| 20260505002042 | 16 | 242 | 3.2 | 8.0 | 0.00 | 0.00 | 0.00 | 36 | 1011.0 |
| 20260505001542 | 16 | 317 | 1.6 | 8.0 | 0.00 | 0.00 | 0.00 | 35 | 1011.0 |
| 20260505001042 | 16 | 273 | 3.2 | 9.7 | 0.00 | 0.00 | 0.00 | 37 | 1011.0 |
| 20260505000542 | 16 | 343 | 1.6 | 16.1 | 0.00 | 0.00 | 0.00 | 34 | 1011.0 |
| 20260505000042 | 16 | 333 | 11.3 | 16.1 | 0.00 | 0.00 | 0.00 | 34 | 1011.0 |
| 20260504235542 | 16 | 321 | 3.2 | 14.5 | 0.00 | 0.00 | 0.00 | 36 | 1011.1 |
| 20260504235042 | 16 | 326 | 4.8 | 14.5 | 0.00 | 0.00 | 0.00 | 34 | 1011.1 |
| 20260504234542 | 16 | 340 | 4.8 | 12.9 | 0.00 | 0.00 | 0.00 | 34 | 1011.0 |
| 20260504234042 | 16 | 349 | 3.2 | 14.5 | 0.00 | 0.00 | 0.00 | 32 | 1011.1 |
| 20260504233542 | 17 | 321 | 6.4 | 16.1 | 0.00 | 0.00 | 0.00 | 32 | 1011.0 |
| 20260504233042 | 17 | 315 | 8.0 | 16.1 | 0.00 | 0.00 | 0.00 | 33 | 1011.0 |
| 20260504232542 | 17 | 331 | 9.7 | 20.9 | 0.00 | 0.00 | 0.00 | 31 | 1011.0 |
| 20260504232042 | 18 | 325 | 14.5 | 20.9 | 0.00 | 0.00 | 0.00 | 29 | 1011.0 |
| 20260504231542 | 18 | 313 | 8.0 | 16.1 | 0.00 | 0.00 | 0.00 | 31 | 1011.0 |
| 20260504231042 | 18 | 339 | 9.7 | 16.1 | 0.00 | 0.00 | 0.00 | 30 | 1011.0 |
| 20260504230542 | 17 | 262 | 1.6 | 11.3 | 0.00 | 0.00 | 0.00 | 34 | 1011.1 |
| 20260504230042 | 17 | 15 | 1.6 | 11.3 | 0.00 | 0.00 | 0.00 | 34 | 1011.1 |
| 20260504225542 | 17 | 353 | 6.4 | 20.9 | 0.00 | 0.00 | 0.00 | 32 | 1011.1 |
| 20260504225042 | 17 | 329 | 8.0 | 20.9 | 0.00 | 0.00 | 0.00 | 32 | 1011.1 |
| 20260504224542 | 17 | 332 | 4.8 | 19.3 | 0.00 | 0.00 | 0.00 | 32 | 1011.1 |
| 20260504224042 | 17 | 325 | 12.9 | 19.3 | 0.00 | 0.00 | 0.00 | 35 | 1011.1 |
| 20260504223542 | 17 | 345 | 9.7 | 19.3 | 0.00 | 0.00 | 0.00 | 32 | 1011.2 |
| 20260504223042 | 16 | 341 | 14.5 | 19.3 | 0.00 | 0.00 | 0.00 | 36 | 1011.2 |
| 20260504222542 | 16 | 343 | 9.7 | 20.9 | 0.00 | 0.00 | 0.00 | 35 | 1011.2 |
| 20260504222042 | 16 | 349 | 14.5 | 22.5 | 0.00 | 0.00 | 0.00 | 34 | 1011.2 |
| 20260504221542 | 16 | 348 | 11.3 | 22.5 | 0.00 | 0.00 | 0.00 | 36 | 1011.2 |
| 20260504221042 | 16 | 28 | 9.7 | 29.0 | 0.00 | 0.00 | 0.00 | 37 | 1011.2 |
| 20260504220542 | 16 | 339 | 12.9 | 29.0 | 0.00 | 0.00 | 0.00 | 36 | 1011.2 |
| 20260504220042 | 17 | 332 | 12.9 | 29.0 | 0.00 | 0.00 | 0.00 | 37 | 1011.2 |
| 20260504215542 | 17 | 327 | 8.0 | 20.9 | 0.00 | 0.00 | 0.00 | 36 | 1011.3 |
| 20260504215042 | 17 | 356 | 8.0 | 12.9 | 0.00 | 0.00 | 0.00 | 34 | 1011.4 |
| 20260504214542 | 17 | 325 | 8.0 | 12.9 | 0.00 | 0.00 | 0.00 | 34 | 1011.5 |
| 20260504214042 | 17 | 340 | 1.6 | 14.5 | 0.00 | 0.00 | 0.00 | 33 | 1011.6 |
| 20260504213542 | 17 | 282 | 4.8 | 14.5 | 0.00 | 0.00 | 0.00 | 34 | 1011.6 |
| 20260504213042 | 17 | 252 | 3.2 | 9.7 | 0.00 | 0.00 | 0.00 | 33 | 1011.6 |
| 20260504212542 | 17 | 311 | 4.8 | 14.5 | 0.00 | 0.00 | 0.00 | 36 | 1011.6 |
| 20260504212042 | 17 | 255 | 1.6 | 20.9 | 0.00 | 0.00 | 0.00 | 34 | 1011.5 |
| 20260504211542 | 17 | 219 | 6.4 | 20.9 | 0.00 | 0.00 | 0.00 | 33 | 1011.5 |
| 20260504211042 | 17 | 300 | 9.7 | 17.7 | 0.00 | 0.00 | 0.00 | 33 | 1011.4 |
| 20260504210542 | 17 | 339 | 1.6 | 17.7 | 0.00 | 0.00 | 0.00 | 33 | 1011.6 |
| 20260504205542 | 19 | 299 | 3.2 | 16.1 | 0.00 | 0.00 | 0.00 | 29 | 1011.6 |
| 20260504205042 | 19 | 329 | 3.2 | 14.5 | 0.00 | 0.00 | 0.00 | 28 | 1011.6 |
| 20260504204542 | 18 | 214 | 3.2 | 20.9 | 0.00 | 0.00 | 0.00 | 28 | 1011.6 |
| 20260504204042 | 19 | 214 | 14.5 | 20.9 | 0.00 | 0.00 | 0.00 | 28 | 1011.6 |
| 20260504203542 | 19 | 154 | 1.6 | 8.0 | 0.00 | 0.00 | 0.00 | 27 | 1011.6 |
| 20260504203042 | 20 | 75 | 3.2 | 8.0 | 0.00 | 0.00 | 0.00 | 26 | 1011.6 |
| 20260504202542 | 20 | 198 | 3.2 | 12.9 | 0.00 | 0.00 | 0.00 | 25 | 1011.7 |
| 20260504202042 | 21 | 297 | 1.6 | 12.9 | 0.00 | 0.00 | 0.00 | 26 | 1011.7 |
| 20260504201542 | 21 | 265 | 4.8 | 12.9 | 0.00 | 0.00 | 0.00 | 28 | 1011.7 |
| 20260504201042 | 21 | 189 | 8.0 | 16.1 | 0.00 | 0.00 | 0.00 | 27 | 1011.7 |
| 20260504200542 | 21 | 210 | 9.7 | 17.7 | 0.00 | 0.00 | 0.00 | 28 | 1011.7 |
| 20260504200042 | 21 | 189 | 8.0 | 17.7 | 0.00 | 0.00 | 0.00 | 26 | 1011.7 |
| 20260504195542 | 20 | 146 | 1.6 | 16.1 | 0.00 | 0.00 | 0.00 | 28 | 1011.8 |
| 20260504195042 | 20 | 190 | 9.7 | 20.9 | 0.00 | 0.00 | 0.00 | 29 | 1011.9 |
| 20260504194542 | 20 | 203 | 9.7 | 20.9 | 0.00 | 0.00 | 0.00 | 29 | 1011.9 |
| 20260504194042 | 20 | 206 | 9.7 | 20.9 | 0.00 | 0.00 | 0.00 | 30 | 1011.8 |
| 20260504193542 | 20 | 142 | 8.0 | 17.7 | 0.00 | 0.00 | 0.00 | 29 | 1012.0 |
| 20260504193042 | 20 | 157 | 6.4 | 20.9 | 0.00 | 0.00 | 0.00 | 30 | 1012.0 |
| 20260504192542 | 20 | 216 | 8.0 | 20.9 | 0.00 | 0.00 | 0.00 | 31 | 1012.0 |
| 20260504192042 | 20 | 145 | 4.8 | 19.3 | 0.00 | 0.00 | 0.00 | 29 | 1012.0 |
| 20260504191542 | 20 | 177 | 11.3 | 19.3 | 0.00 | 0.00 | 0.00 | 31 | 1012.0 |
| 20260504191042 | 20 | 129 | 9.7 | 19.3 | 0.00 | 0.00 | 0.00 | 31 | 1012.1 |
| 20260504190542 | 20 | 227 | 6.4 | 17.7 | 0.00 | 0.00 | 0.00 | 30 | 1012.2 |
| 20260504190042 | 19 | 173 | 9.7 | 17.7 | 0.00 | 0.00 | 0.00 | 32 | 1012.3 |
| 20260504185542 | 19 | 189 | 6.4 | 19.3 | 0.00 | 0.00 | 0.00 | 32 | 1012.3 |
| 20260504185042 | 19 | 218 | 11.3 | 19.3 | 0.00 | 0.00 | 0.00 | 30 | 1012.4 |
| 20260504184542 | 19 | 155 | 9.7 | 22.5 | 0.00 | 0.00 | 0.00 | 31 | 1012.4 |
| 20260504184042 | 19 | 201 | 4.8 | 22.5 | 0.00 | 0.00 | 0.00 | 31 | 1012.5 |
| 20260504183542 | 19 | 171 | 4.8 | 17.7 | 0.00 | 0.00 | 0.00 | 32 | 1012.5 |
| 20260504183042 | 18 | 130 | 8.0 | 22.5 | 0.00 | 0.00 | 0.00 | 31 | 1012.6 |
| 20260504182542 | 19 | 182 | 12.9 | 22.5 | 0.00 | 0.00 | 0.00 | 33 | 1012.7 |
| 20260504182042 | 18 | 154 | 9.7 | 20.9 | 0.00 | 0.00 | 0.00 | 31 | 1012.7 |
| 20260504181542 | 18 | 184 | 11.3 | 20.9 | 0.00 | 0.00 | 0.00 | 31 | 1012.7 |
| 20260504181042 | 18 | 220 | 8.0 | 20.9 | 0.00 | 0.00 | 0.00 | 31 | 1012.7 |
| 20260504180542 | 18 | 167 | 9.7 | 22.5 | 0.00 | 0.00 | 0.00 | 31 | 1012.8 |
| 20260504180042 | 18 | 178 | 6.4 | 22.5 | 0.00 | 0.00 | 0.00 | 31 | 1012.8 |
| 20260504175542 | 18 | 188 | 4.8 | 16.1 | 0.00 | 0.00 | 0.00 | 32 | 1012.8 |
| 20260504175042 | 18 | 164 | 9.7 | 17.7 | 0.00 | 0.00 | 0.00 | 32 | 1012.8 |
| 20260504174542 | 18 | 180 | 9.7 | 24.1 | 0.00 | 0.00 | 0.00 | 33 | 1012.9 |
| 20260504174042 | 18 | 150 | 8.0 | 24.1 | 0.00 | 0.00 | 0.00 | 35 | 1012.9 |
| 20260504173542 | 18 | 177 | 12.9 | 17.7 | 0.00 | 0.00 | 0.00 | 33 | 1013.0 |
| 20260504173042 | 18 | 209 | 8.0 | 17.7 | 0.00 | 0.00 | 0.00 | 34 | 1013.0 |
| 20260504172542 | 17 | 169 | 9.7 | 17.7 | 0.00 | 0.00 | 0.00 | 35 | 1013.0 |
| 20260504172042 | 17 | 154 | 6.4 | 17.7 | 0.00 | 0.00 | 0.00 | 34 | 1013.1 |
| 20260504171542 | 17 | 145 | 9.7 | 19.3 | 0.00 | 0.00 | 0.00 | 34 | 1013.1 |
| 20260504171042 | 17 | 194 | 8.0 | 19.3 | 0.00 | 0.00 | 0.00 | 35 | 1013.1 |
| 20260504170542 | 17 | 196 | 6.4 | 29.0 | 0.00 | 0.00 | 0.00 | 37 | 1013.1 |
| 20260504151042 | 12 | 165 | 4.8 | 17.7 | 0.00 | 0.00 | 0.00 | 50 | 1013.3 |
| 20260504150542 | 12 | 172 | 9.7 | 14.5 | 0.00 | 0.00 | 0.00 | 51 | 1013.3 |
| 20260504141042 | 11 | 188 | 9.7 | 16.1 | 0.00 | 0.00 | 0.00 | 50 | 1013.3 |
| 20260504140542 | 11 | 183 | 6.4 | 16.1 | 0.00 | 0.00 | 0.00 | 49 | 1013.3 |
| 20260504130350 | 10 | 186 | 6.4 | 14.5 | 0.00 | 0.00 | 0.00 | 49 | 1013.2 |
| 20260504110350 | 10 | 176 | 9.7 | 24.1 | 0.00 | 0.00 | 0.00 | 50 | 1013.2 |
| 20260504100351 | 11 | 188 | 11.3 | 22.5 | 0.00 | 0.00 | 0.00 | 42 | 1013.3 |